Home > Weather > Hollywood > Past weeks

Flag for USA Weather for the Past 2 Weeks in Hollywood, Florida, USA

Now
66 °F

Clear.


Feels Like: 66 °F
Forecast: 69 / 82 °F
Wind: 10 mph from Northwest

Location: Fort Lauderdale / Hollywood International Airport

Current Time: May 5, 2016 at 5:27:26 AM

Latest Report: May 5, 2016 at 4:53 AM


Visibility: 10 mi

Pressure: 29.72 "Hg

Humidity: 87%

Dew Point: 62 °F

Location of HollywoodLocation

Historic Weather in Hollywood — Graph

°F

Hollywood Temperature Yesterday

Maximum temperature yesterday: 87 °F (at 11:53 AM)
Minimum temperature yesterday: 72 °F (at 2:53 PM)
Average temperature yesterday: 76 °F

High & Low Weather Summary for the Past Weeks

 TemperatureHumidityPressure
High89 °F (Apr 23, 5:53 PM)94% (May 4, 4:53 AM)30.10 "Hg (May 4, 4:53 AM)
Low67 °F (May 5, 3:53 AM)35% (Apr 23, 7:53 PM)29.67 "Hg (May 4, 8:53 PM)
Average79 °F64%29.96 "Hg
* Reported Apr 20 3:53 AM — May 5 3:53 AM, Hollywood, Weather by CustomWeather, © 2016

Note: Actual official high and low records may vary slightly from our data, if they occured in-between our weather recording intervals... More about our weather records

Advertising

Hollywood Weather History for the Previous 24 Hours

Scroll right to see more
 ConditionsComfort  
Time TempWeatherWind HumidityBarometerVisibility
3:53 AM
Thu, May 5
67 °FPassing clouds.8 mph90%29.72 "Hg10 mi
2:53 AM69 °FPassing clouds.9 mph87%29.72 "Hg10 mi
1:53 AM70 °FPassing clouds.9 mph90%29.72 "Hg10 mi
12:53 AM72 °FPassing clouds.17 mph93%29.71 "Hg10 mi
11:53 PM
Wed, May 4
72 °FPassing clouds.14 mph93%29.71 "Hg9 mi
10:53 PM72 °FLight rain. Mostly cloudy.17 mph91%29.71 "Hg10 mi
9:53 PM72 °FLight rain. Mostly cloudy.16 mph84%29.68 "Hg10 mi
8:53 PM72 °FLight rain. Mostly cloudy.21 mph93%29.67 "Hg10 mi
7:53 PM73 °FLight rain. Mostly cloudy.7 mph94%29.71 "Hg10 mi
6:53 PM74 °FCloudy.10 mph85%29.73 "Hg10 mi
5:53 PM74 °FBroken clouds.5 mph88%29.74 "Hg10 mi
4:53 PM73 °FPartly sunny.8 mph90%29.74 "Hg10 mi
3:57 PM72 °FLight rain. Mostly cloudy.8 mph91%29.78 "Hg7 mi
2:53 PM72 °FStrong thunderstorms. Fog.8 mph91%29.79 "Hg1 mi
1:53 PM73 °FLight rain. Broken clouds.6 mph84%29.81 "Hg10 mi
12:53 PM84 °FThunderstorms. Mostly cloudy.17 mph63%29.81 "Hg10 mi
11:53 AM87 °FPartly sunny.8 mph57%29.83 "Hg10 mi
10:53 AM86 °FPartly sunny.12 mph61%29.88 "Hg10 mi
9:53 AM83 °FBroken clouds.12 mph70%29.86 "Hg10 mi
8:53 AM81 °FPartly sunny.7 mph77%29.85 "Hg10 mi
7:53 AM77 °FFog.5 mph88%29.84 "Hg6 mi
6:53 AM76 °FFog.5 mph91%29.84 "Hg6 mi
6:02 AM76 °FFog.6 mph94%29.85 "Hg6 mi
5:53 AM76 °FFog.6 mph94%29.84 "Hg4 mi
Weather by CustomWeather, © 2016

See weather overviewHow to use our weather pages